EDT,Max TemperatureF,Mean TemperatureF,Min TemperatureF,Max Dew PointF,MeanDew PointF,Min DewpointF,Max Humidity, Mean Humidity, Min Humidity, Max Sea Level PressureIn, Mean Sea Level PressureIn, Min Sea Level PressureIn, Max VisibilityMiles, Mean VisibilityMiles, Min VisibilityMiles, Max Wind SpeedMPH, Mean Wind SpeedMPH, Max Gust SpeedMPH,PrecipitationIn, CloudCover, Events, WindDirDegrees
2013-8-1,77,67,56,67,60,55,100,85,69,30.03,29.93,29.83,10,4,0,18,5,24,0.19,4,Fog-Rain,184
2013-8-2,81,70,58,64,61,54,100,71,42,29.86,29.83,29.80,10,5,0,14,5,21,0.00,5,Fog,200
2013-8-3,79,68,56,62,57,54,100,72,43,29.87,29.83,29.80,10,9,2,16,5,24,0.17,4,Rain,255
2013-8-4,76,63,50,61,54,48,100,71,41,29.97,29.87,29.83,10,7,0,25,5,30,0.26,3,Fog-Rain-Thunderstorm,347
2013-8-5,75,62,49,53,47,41,96,65,33,30.06,30.01,29.96,10,10,10,18,6,26,0.00,0,,329
2013-8-6,76,61,46,59,50,45,100,72,43,30.14,30.09,30.06,10,6,1,10,2,13,0.00,0,,156
2013-8-7,77,67,57,63,60,55,97,79,60,30.14,30.09,30.01,10,10,2,20,7,25,0.00,6,,180
2013-8-8,83,76,69,72,68,63,100,81,62,30.02,29.98,29.94,10,9,2,25,6,33,0.01,6,Rain-Thunderstorm,195
2013-8-9,79,73,67,73,71,68,100,90,79,29.95,29.85,29.77,10,6,1,10,4,14,0.24,6,Rain,195
2013-8-10,79,66,53,63,55,44,100,65,30,30.05,29.92,29.84,10,7,1,18,5,23,0.00,0,,266
2013-8-11,78,64,50,58,53,48,100,72,43,30.11,30.06,29.99,10,9,1,12,4,18,0.00,1,,199
2013-8-12,79,65,50,61,55,50,100,72,43,30.04,29.99,29.90,10,7,0,15,4,18,0.00,1,Fog,184
2013-8-13,69,63,57,65,62,54,100,84,67,29.88,29.78,29.69,10,3,0,15,2,20,1.02,6,Fog-Rain,188
2013-8-14,73,61,48,53,51,48,96,72,47,30.01,29.84,29.75,10,9,2,18,6,23,T,4,,253
2013-8-15,74,59,44,54,47,43,93,70,47,30.11,30.05,30.00,10,6,1,15,4,22,0.00,2,,236
2013-8-16,78,63,48,59,54,51,100,70,40,30.21,30.16,30.13,10,9,3,13,2,16,0.00,1,,198
2013-8-17,79,64,49,62,54,48,100,74,48,30.30,30.26,30.21,10,5,0,7,1,10,0.00,1,Fog,150
2013-8-18,75,65,54,65,58,54,100,82,64,30.29,30.23,30.10,10,4,0,8,2,10,0.00,0,Fog,165
2013-8-19,80,67,54,66,60,54,100,79,58,30.10,30.05,29.97,10,3,0,14,2,16,0.00,3,Fog,166
2013-8-20,85,69,52,66,57,52,100,72,43,30.12,30.05,30.02,10,4,0,13,3,15,0.00,2,Fog,157
2013-8-21,85,70,54,67,59,54,100,74,47,30.17,30.12,30.02,10,3,0,15,4,20,0.00,1,Fog,198
2013-8-22,85,71,57,69,61,57,100,76,51,30.04,29.96,29.82,10,4,0,18,6,24,T,1,Fog-Thunderstorm,240
2013-8-23,75,62,49,64,57,50,100,73,46,30.19,30.02,29.90,10,8,0,15,7,18,0.00,2,Fog,19
2013-8-24,78,62,45,56,49,45,100,68,36,30.34,30.29,30.20,10,6,0,8,1,10,0.00,0,Fog,89
2013-8-25,80,63,45,62,51,45,100,70,39,30.39,30.32,30.16,10,5,0,16,4,20,0.01,1,Fog-Rain,178
2013-8-26,80,72,64,70,66,59,100,84,67,30.15,29.98,29.90,10,7,1,14,7,20,0.16,7,Rain,190
2013-8-27,82,73,63,70,67,64,100,79,58,29.92,29.89,29.86,10,5,0,8,1,10,0.00,2,Fog,349
2013-8-28,86,74,61,71,65,61,100,74,48,29.93,29.89,29.83,10,4,0,10,1,13,0.00,3,Fog,73
2013-8-29,79,70,60,68,63,61,100,79,58,30.06,29.99,29.94,10,5,0,8,2,14,0.01,4,Fog-Rain,170
2013-8-30,85,76,66,69,66,64,93,76,58,30.00,29.90,29.79,10,9,7,15,6,21,T,4,Rain,180
2013-8-31,80,74,67,75,70,66,100,91,82,29.83,29.78,29.73,8,4,0,16,4,22,0.84,7,Fog-Rain-Thunderstorm,191